FW5120 Weather Reports


time (UTC)temp
C
wind
direction
speed
KPH
gust
KPH
rain 1hr
cm
rain 24hr
cm
rain mn
cm
humidity
%
barometer
mb
20260507161534 17 208 1.6 8.0 0.00 0.81 0.81 83 1014.8
20260507160031 17 200 3.2 8.0 0.00 0.81 0.81 84 1014.7
20260507154520 17 223 1.6 8.0 0.00 0.81 0.81 85 1014.8
20260507153019 17 165 3.2 11.3 0.00 0.81 0.81 85 1014.9
20260507151534 17 103 0.0 8.0 0.00 0.81 0.81 85 1014.9
20260507150018 17 180 1.6 8.0 0.00 0.81 0.81 85 1014.9
20260507144519 17 200 4.8 11.3 0.00 0.81 0.81 87 1015.0
20260507143016 16 106 0.0 6.4 0.05 0.81 0.81 88 1015.2
20260507141516 16 200 0.0 4.8 0.08 0.81 0.81 91 1014.9
20260507140019 16 211 4.8 8.0 0.08 0.81 0.81 92 1015.2
20260507134528 15 251 0.0 4.8 0.08 0.81 0.81 91 1015.2
20260507133015 16 265 1.6 6.4 0.05 0.79 0.79 87 1015.4
20260507131519 16 311 3.2 8.0 0.00 0.71 0.71 85 1015.7
20260507130013 17 11 1.6 6.4 0.00 0.71 0.71 88 1015.7
20260507124512 16 347 4.8 8.0 0.00 0.71 0.71 88 1015.9
20260507123018 17 315 1.6 8.0 0.00 0.71 0.71 87 1016.0
20260507121511 17 337 0.0 8.0 0.00 0.71 0.71 86 1015.9
20260507120011 17 27 0.0 3.2 0.00 0.71 0.71 87 1015.9
20260507114513 17 26 0.0 6.4 0.00 0.71 0.71 85 1015.8
20260507113006 17 185 1.6 4.8 0.00 0.71 0.71 88 1015.9
20260507111510 17 195 0.0 4.8 0.00 0.71 0.71 90 1015.9
20260507110003 16 213 0.0 6.4 0.00 0.71 0.71 92 1016.1
20260507104501 16 160 0.0 3.2 0.03 0.71 0.71 93 1016.2
20260507103100 15 180 0.0 4.8 0.05 0.71 0.71 94 1016.2
20260507101600 15 119 0.0 4.8 0.05 0.71 0.71 94 1016.3
20260507100058 15 112 0.0 6.4 0.10 0.71 0.71 94 1016.2
20260507094609 15 167 1.6 4.8 0.08 0.71 0.71 95 1016.5
20260507093058 15 169 1.6 4.8 0.13 0.71 0.71 95 1016.4
20260507091613 14 215 0.0 6.4 0.15 0.69 0.69 94 1016.3
20260507090100 14 250 1.6 4.8 0.15 0.64 0.64 95 1016.3
20260507084553 14 250 0.0 1.6 0.20 0.64 0.64 95 1016.2
20260507083047 14 250 0.0 3.2 0.20 0.58 0.58 95 1016.1
20260507081544 14 250 0.0 1.6 0.15 0.51 0.51 95 1016.0
20260507080041 14 250 0.0 1.6 0.13 0.48 0.48 95 1015.9
20260507074544 13 250 0.0 1.6 0.10 0.43 0.43 95 1015.8
20260507073035 13 250 0.0 1.6 0.10 0.38 0.38 94 1016.0
20260507071532 13 250 0.0 1.6 0.15 0.38 0.38 94 1015.7
20260507070030 13 250 0.0 1.6 0.25 0.36 0.36 94 1015.4
20260507064534 12 250 0.0 3.2 0.33 0.33 0.33 94 1015.4
20260507063031 12 250 0.0 1.6 0.28 0.28 0.28 94 1015.3
20260507061527 12 249 0.0 1.6 0.20 0.20 0.20 93 1015.3
20260507060029 12 249 0.0 3.2 0.10 0.10 0.10 93 1015.2
20260507054522 12 249 0.0 3.2 0.03 0.03 0.03 92 1014.9
20260507053021 12 249 0.0 3.2 0.00 0.00 0.00 92 1014.6
20260507051529 12 249 0.0 1.6 0.00 0.00 0.00 92 1014.5
20260507050018 12 249 0.0 1.6 0.00 0.00 0.00 93 1014.5
20260507044517 12 249 0.0 0.0 0.00 0.00 0.00 93 1014.1
20260507043015 12 249 0.0 1.6 0.00 0.00 0.00 93 1014.0
20260507041514 12 248 0.0 1.6 0.00 0.00 0.00 93 1014.0
20260507040013 11 248 1.6 3.2 0.00 0.00 0.00 93 1014.0
20260507034520 11 249 0.0 6.4 0.00 0.00 0.00 93 1013.9
20260507033013 11 207 0.0 4.8 0.00 0.00 0.00 93 1014.0
20260507031512 11 283 0.0 3.2 0.00 0.00 0.00 93 1014.0
20260507030017 11 283 0.0 1.6 0.00 0.00 0.00 92 1013.9
20260507024518 11 283 0.0 3.2 0.00 0.00 0.00 93 1013.7
20260507023010 11 275 0.0 3.2 0.00 0.00 0.00 93 1013.5
20260507021509 11 275 1.6 4.8 0.00 0.00 0.00 92 1013.6
20260507020009 11 252 0.0 0.0 0.00 0.00 0.00 92 1013.4
20260507014510 11 252 0.0 1.6 0.00 0.00 0.00 92 1013.5
20260507013007 11 252 0.0 3.2 0.00 0.00 0.00 92 1013.6
20260507011508 11 252 0.0 4.8 0.00 0.00 0.00 92 1013.3
20260507010010 11 257 0.0 0.0 0.00 0.00 0.00 92 1013.3
20260507004503 11 257 0.0 3.2 0.00 0.00 0.00 91 1013.3
20260507003001 11 257 1.6 4.8 0.00 0.00 0.00 91 1013.6
20260507001602 11 239 0.0 3.2 0.00 0.00 0.00 91 1013.7
20260507000105 11 332 0.0 3.2 0.00 0.00 0.00 91 1013.9
20260506234621 11 332 0.0 1.6 0.00 0.00 0.00 91 1013.7
20260506233104 12 332 0.0 3.2 0.00 0.00 0.00 90 1013.8
20260506231557 12 332 0.0 6.4 0.00 0.00 0.00 90 1013.9
20260506230054 12 165 3.2 4.8 0.00 0.00 0.00 90 1013.7
20260506224555 12 252 0.0 1.6 0.00 0.00 0.00 89 1013.9
20260506223057 12 252 0.0 3.2 0.00 0.00 0.00 88 1014.0
20260506221550 12 252 0.0 1.6 0.00 0.00 0.00 87 1013.9
20260506220050 13 252 1.6 3.2 0.00 0.00 0.00 85 1013.6
20260506214547 13 252 0.0 6.4 0.00 0.00 0.00 84 1013.5
20260506213044 13 261 0.0 6.4 0.00 0.00 0.00 83 1013.5
20260506211550 14 355 4.8 8.0 0.00 0.00 0.00 83 1013.2
20260506210043 14 240 3.2 12.9 0.00 0.00 0.00 85 1013.2
20260506204543 13 186 1.6 8.0 0.00 0.00 0.00 88 1013.0
20260506203042 13 188 3.2 4.8 0.00 0.00 0.00 87 1012.9
20260506201542 13 185 1.6 4.8 0.00 0.00 0.00 85 1012.8
20260506200041 14 182 0.0 4.8 0.00 0.00 0.00 84 1012.9
20260506194540 15 250 0.0 4.8 0.00 0.00 0.00 82 1013.0
20260506193039 16 276 3.2 8.0 0.00 0.00 0.00 80 1012.8
20260506191540 15 197 0.0 6.4 0.00 0.00 0.00 83 1012.6
20260506190038 15 236 0.0 4.8 0.00 0.00 0.00 85 1012.4
20260506184537 15 242 1.6 6.4 0.00 0.00 0.00 86 1012.1
20260506183037 15 257 0.0 1.6 0.00 0.00 0.00 84 1012.0
20260506181538 16 257 0.0 3.2 0.00 0.00 0.00 81 1012.0
20260506180036 17 257 0.0 3.2 0.00 0.00 0.00 79 1011.9
20260506174537 17 259 1.6 4.8 0.00 0.00 0.00 77 1011.9
20260506173035 18 263 1.6 6.4 0.00 0.00 0.00 74 1011.9
20260506171534 18 236 4.8 12.9 0.00 0.00 0.00 72 1011.9
20260506170033 19 258 6.4 11.3 0.00 0.00 0.00 70 1011.8
20260506164534 19 220 3.2 6.4 0.00 0.00 0.00 71 1011.7
20260506163034 19 255 1.6 9.7 0.00 0.00 0.00 71 1011.8